View from above orbital plane
|
View from above satellite
|
Ground track
|
The orbit data is extracted from the following two-line orbital elements,
1 25634U 99008A 21110.10944558 -.00000006 00000-0 16690-4 0 9990
2 25634 98.4251 140.6485 0011363 107.1608 253.0814 14.19392969147475
Epoch (UTC): | 20 April 2021 02:37:36 |
Eccentricity: | 0.0011363 |
inclination: | 98.4251° |
perigee height: | 819 km |
apogee height: | 835 km |
right ascension of ascending node: | 140.6485° |
argument of perigee: | 107.1608° |
revolutions per day: | 14.19392969 |
mean anomaly at epoch: | 253.0814° |
orbit number at epoch: | 14747 |
The dashed part of the orbit path shows where the satellite is in the earth's shadow,
|
|